Regional Weather Roundup
Issued by NWS

Home | Current Version | Previous Version | Text Only | Print | Product List | Glossary On
Versions: 1 2 3 4 5 6 7 8 9 10 11 12 13 14 15 16 17 18 19 20 21 22 23 24 25 26 27 28 29 30 31 32 33 34 35 36 37 38 39 40 41 42 43 44 45 46 47 48 49 50
000
ASUS42 KFFC 232210
RWRGA
WEATHER ROUNDUP FOR GEORGIA
NATIONAL WEATHER SERVICE PEACHTREE CITY GA
600 PM EDT TUE MAY 23 2017

NOTE: "FAIR" INDICATES FEW OR NO CLOUDS BELOW 12,000 FEET WITH NO
SIGNIFICANT WEATHER AND/OR OBSTRUCTIONS TO VISIBILITY.

* = USE WITH CAUTION. THE STATIONS MARKED WITH AN ASTERISK MAY NOT
REPORT WEATHER SUCH AS PRECIPITATION, FOG, OR THUNDER AND ARE NOT
QUALITY CONTROLLED BY NWS.

THE REMARK "TC" DENOTES TEMPERATURE READING IN DEGREES CELSIUS.

GAZ001>058-232300-
NORTH GEORGIA

CITY           SKY/WX    TMP DP  RH WIND       PRES   REMARKS
ATLANTA        PTSUNNY   72  65  78 S5        29.70F
ATHENS         CLOUDY    73  67  81 VRB6      29.71F
CHAMBLEE       MOSUNNY   74  62  66 S6        29.70F
PEACHTREE CITY MOSUNNY   75  65  70 VRB5      29.70F
ROME           CLOUDY    75  66  73 W5        29.65F
WEST ATLANTA   MOSUNNY   75  64  68 S9        29.68F
GAINESVILLE    MOSUNNY   70  63  78 SW8       29.72F
CARTERSVILLE   MOSUNNY   74  70  87 SW7       29.68F


CITY           SKY/WX    TMP DP  RH WIND       PRES   REMARKS
DALTON*        CLOUDY    73  64  73 CALM      29.66F
LAWRENCEVILLE* PTSUNNY   72  64  78 S7        29.72F
MARIETTA       PTSUNNY   73  64  72 S7        29.68F
KENNESAW*      PTSUNNY   75  66  73 CALM      29.72F
CANTON*        SUNNY     73  57  56 S6        29.70F
$$

GAZ059>098-102>109-232300-
CENTRAL GEORGIA

CITY           SKY/WX    TMP DP  RH WIND       PRES   REMARKS
AUGUSTA-BUSH   LGT RAIN  71  68  90 CALM      29.71S FOG
AUGUSTA-DANIEL LGT RAIN  69  64  84 CALM      29.72F
COLUMBUS       LGT RAIN  69  66  90 S7        29.72S VSB 1
MACON          CLOUDY    71  66  84 CALM      29.72F


CITY           SKY/WX    TMP DP  RH WIND       PRES   REMARKS
LAGRANGE*      PTSUNNY   77  71  81 S8        29.70F
SYLVANIA*      CLOUDY    69  69 100 SE7       29.74F
MILLEDGEVILLE* CLOUDY    70  70 100 CALM      29.73S
$$

GAZ099>101-110>166-232300-
SOUTH GEORGIA

CITY           SKY/WX    TMP DP  RH WIND       PRES   REMARKS
SAVANNAH       CLOUDY    73  68  84 W12       29.76R THUNDER
VALDOSTA       CLOUDY    79  71  76 SW8G23    29.74R
ALMA           CLOUDY    74  72  93 CALM      29.73F
ST SIMONS      CLOUDY    81  72  74 S13G21    29.75S
ALBANY         TSTM      74  72  93 N5        29.73F
BRUNSWICK      TSTM      77  75  94 W13G18    29.76R


CITY           SKY/WX    TMP DP  RH WIND       PRES   REMARKS
BAINBRIDGE*    CLOUDY    81  68  65 SW16G26   29.72S
MOULTRIE*      CLOUDY    79  72  78 SW10G16   29.74F
VIDALIA*       CLOUDY    72  70  94 S5        29.73S
WAYCROSS*      CLOUDY    80  78  92 SW9       29.74S
DOUGLAS*       RAIN      73  72  94 CALM      29.73F
$$




USA.gov is the U.S. government's official web portal to all federal, state and local government web resources and services.